Date,TemperatureHighF,TemperatureAvgF,TemperatureLowF,DewpointHighF,DewpointAvgF,DewpointLowF,HumidityHigh,HumidityAvg,HumidityLow,PressureMaxIn,PressureMinIn,WindSpeedMaxMPH,WindSpeedAvgMPH,GustSpeedMaxMPH,PrecipitationSumIn
2013-8-1,83,64,49,60,53,47,96,71,43,0.00,40.00,10,1,12,0.00
2013-8-2,82,66,49,58,52,47,94,67,35,0.00,40.00,13,1,18,0.00
2013-8-3,74,60,50,59,52,48,94,79,59,0.00,40.00,13,2,14,0.00
2013-8-4,69,58,52,57,52,50,93,84,61,0.00,40.00,12,2,14,0.00
2013-8-5,72,58,52,59,52,49,92,83,61,0.00,40.00,12,2,14,0.00
2013-8-6,68,58,52,56,52,49,92,83,66,0.00,40.00,16,2,18,0.00
2013-8-7,68,60,54,58,55,52,93,83,70,0.00,40.00,16,2,16,0.00
2013-8-8,70,58,52,59,54,50,94,87,67,0.00,40.00,11,1,18,0.00
2013-8-9,73,62,55,60,55,52,92,79,62,0.00,40.00,19,2,19,0.00
2013-8-10,71,61,55,60,55,52,93,83,66,0.00,40.00,12,2,15,0.00
2013-8-11,77,62,55,63,56,52,95,82,56,0.00,40.00,12,1,14,0.00
2013-8-12,76,60,53,61,54,51,95,82,54,0.00,40.00,11,1,12,0.00
2013-8-13,85,66,51,62,55,50,95,72,38,0.00,40.00,12,1,14,0.00
2013-8-14,90,68,51,61,56,49,95,69,32,0.00,40.00,11,1,12,0.00
2013-8-15,83,68,55,66,60,53,94,79,52,0.00,40.00,13,2,16,0.00
2013-8-16,82,68,57,66,59,56,96,77,53,0.00,40.00,14,2,15,0.00
2013-8-17,89,69,54,64,58,52,95,72,39,0.00,40.00,10,1,13,0.00
2013-8-27,81,72,59,61,58,55,88,64,43,0.00,40.00,12,3,18,0.00
2013-8-28,76,64,54,64,59,53,95,83,63,0.00,40.00,13,2,22,0.00
2013-8-29,78,67,58,65,61,57,95,83,63,0.00,40.00,12,2,15,0.00
2013-8-30,89,71,57,66,60,55,97,72,40,0.00,40.00,13,1,14,0.00
2013-8-31,80,65,54,61,57,52,95,77,48,0.00,40.00,11,1,16,0.00